[[{"header":{"parameterUnit":"m.s-1","parameterCategory":1,"la1":30.2991,"la2":30.254,"lo1":-89.0895,"lo2":-89.0444,"dy":0.0017,"dx":0.0017,"nx":28,"ny":28,"refTime":"2025-07-26T21:00:00:Z","depth":0,"parameterNumber":2,"parameterNumberName":"U-component_of_WINDS"},"data":[0,0,0,0,0,0,0,0,0,0,0,0,0,0,0,0,0,0,0,0,0,0,0,0,0,0,0,0,0,0,0,0,0,0,0,0,0,0,0,0,0,0,0,0,0,0,0,0,0,0,0,0,0,0,0,0,0,0,2.8904,2.8906,0,2.9043,2.9045,2.9046,2.9045,2.9043,2.9041,2.9039,2.9181,2.9186,2.9192,0,0,0,0,0,0,0,0,0,0,0,0,0,2.8637,2.8642,2.8904,2.8906,2.8908,2.9043,2.9045,2.9047,2.9045,2.9043,2.9041,2.9039,2.9179,2.9186,2.9192,0,0,0,0,0,0,0,0,0,0,0,0,0,2.8762,2.8643,2.8904,2.8923,2.8926,2.9042,2.9045,2.9047,2.9046,2.9043,2.904,2.9038,2.9177,2.9185,2.9193,2.9299,0,0,2.9218,2.9222,0,0,0,0,0,0,0,0,2.8755,2.8772,2.8919,2.8922,2.8926,2.9024,2.9002,2.9131,2.9046,2.9,2.9039,2.9036,2.9131,2.9143,2.9175,2.9305,2.9312,2.9219,2.9224,2.9227,2.923,0,0,0,0,0,0,0,2.8746,2.8766,2.8959,2.8921,2.8925,2.8925,2.8939,2.9027,2.9079,2.9004,2.9004,2.9021,2.9132,2.9167,2.9178,2.9314,2.9219,2.9226,2.9231,2.9234,2.9536,2.9539,0,0,0,0,0,0,2.8734,2.8759,2.8955,2.8963,2.8832,2.8932,2.8948,2.8995,2.9078,2.9088,2.9023,2.902,2.9154,2.9168,2.9183,2.9311,2.9227,2.9235,2.924,2.9533,2.9537,2.954,0,0,0,0,0,0,2.8728,2.8751,2.8949,2.8861,2.8886,2.8939,2.8992,2.8999,2.9034,2.9093,2.9102,2.9049,2.9153,2.9171,2.927,2.9315,2.9239,2.9246,2.9529,2.9534,2.9538,2.9567,0,0,0,0,0,0,2.872,2.8749,2.879,2.8862,2.8891,2.9034,2.8995,2.9004,2.9048,2.9046,2.9119,2.9129,2.9152,2.9257,2.9278,2.9325,2.9253,2.9525,2.9531,2.9537,2.9562,2.9572,2.9581,0,0,0,0,0,2.8711,2.8793,2.8792,2.8816,2.8943,2.9036,2.9053,2.9078,2.9052,2.9093,2.9131,2.9126,2.9308,2.9267,2.929,2.9341,2.9523,2.953,2.9536,2.9558,2.957,2.9581,0,0,0,0,0,0,2.8725,2.8803,2.8803,2.8911,2.8967,2.9036,2.9089,2.909,2.9155,2.915,2.9178,2.9195,2.9292,2.9327,2.9281,2.9447,2.9412,2.9424,2.942,2.9432,2.9441,2.943,2.926,0,0,0,0,0,2.8741,2.8811,2.8875,2.8964,2.8992,2.9036,2.9077,2.9092,2.9151,2.9174,2.9219,2.9277,2.9346,2.9392,2.9459,2.9568,2.9583,2.9614,2.9623,2.9631,2.964,2.9698,2.9712,2.9563,2.9563,2.9563,0,0,2.8774,2.8825,2.8868,2.8968,2.9013,2.9083,2.9056,2.9132,2.9184,2.9186,2.9281,2.9316,2.9382,2.9485,2.9533,2.9517,2.9685,2.964,2.9645,2.965,2.9707,2.9721,2.9733,2.9568,2.9567,2.9566,0,0,2.8871,2.8917,2.8995,2.9041,2.911,2.9138,2.9157,2.9226,2.9249,2.9345,2.9347,2.941,2.953,2.9576,2.9615,2.9728,2.9726,2.975,2.9797,2.9853,2.9865,2.9876,2.9914,2.9928,2.9759,2.9759,2.9759,0,2.8903,2.901,2.9036,2.9112,2.9155,2.916,2.9239,2.9282,2.937,2.9399,2.938,2.953,2.9575,2.9688,2.9715,2.9748,2.9769,2.9741,2.9861,2.9872,2.9882,2.9919,2.9934,2.9762,2.9761,2.9761,2.9761,0,2.9045,2.9119,2.9174,2.9258,2.9308,2.9385,2.9422,2.9469,2.9479,2.9509,2.9606,2.966,2.9738,2.9766,2.9777,2.9881,2.9868,2.9856,2.982,2.9898,2.9933,2.9948,2.9765,2.9764,2.9763,2.9763,0,0,2.9154,2.925,2.927,2.9307,2.9383,2.944,2.9517,2.9593,2.9632,2.9693,2.9757,2.9858,2.9846,2.989,2.9907,2.9957,3.004,2.9937,2.9939,2.9952,3.0155,3.0163,3.0179,3.004,3.0043,3.0045,3.0149,0,2.9256,2.9393,2.9418,2.9537,2.9605,2.961,2.9677,2.9731,2.9761,2.9822,2.9856,2.9926,2.9906,2.9933,2.9982,3.0019,3.0081,3.0012,3.0098,3.0101,3.008,3.0198,3.0207,3.0303,3.0163,3.0166,3.0167,0,2.9394,2.9457,2.9582,2.9648,2.9677,2.9737,2.9808,2.9867,2.9927,2.9946,2.9995,3.0005,3.0085,3.0047,3.0156,3.0109,3.0146,3.0169,3.0174,3.0181,3.0137,3.0206,3.0334,3.0347,3.019,3.0188,3.0186,0,2.9458,2.9574,2.9664,2.9696,2.9775,2.9816,2.9851,2.9909,2.9953,3.0015,3.0043,3.0114,3.0152,3.0206,3.0235,3.0205,3.0341,3.0307,3.0357,3.0357,3.0384,3.0382,3.0517,3.0412,3.0411,3.0411,3.0411,0,2.9568,2.9644,2.9693,2.9748,2.9833,2.9861,2.9944,2.9979,3.003,3.0091,3.0101,3.0158,3.0193,3.0255,3.0279,3.0364,3.0382,3.0398,3.0403,3.0396,3.0394,3.0419,3.0413,3.0415,3.0414,3.0413,3.0413,0,2.9653,2.9689,2.9787,2.9854,2.9872,2.9932,2.9989,3.0042,3.0072,3.0149,3.0169,3.0216,3.029,3.0324,3.0415,3.0431,3.0527,3.0529,3.0506,3.0508,3.0556,3.055,3.0711,3.0733,3.0614,3.0615,3.0616,0,2.972,2.9779,2.9852,2.9893,2.9929,2.9996,3.0041,3.0071,3.0116,3.0189,3.0233,3.0307,3.0367,3.0484,3.0526,3.0596,3.0598,3.0649,3.0608,3.0599,3.0596,3.0591,3.0596,3.0656,3.0657,3.0658,3.0659,0,2.9835,2.985,2.9913,2.9983,3.0036,3.0092,3.0147,3.0181,3.022,3.027,3.0345,3.0392,3.0484,3.0557,3.0629,3.0664,3.0668,3.0672,3.0687,3.0679,3.0663,3.067,3.0524,3.0667,3.0666,3.0666,3.0665,3.0665,2.9912,2.9964,3.0023,3.0093,3.0137,3.0189,3.0241,3.0278,3.0341,3.0418,3.0432,3.0512,3.057,3.0667,3.0705,3.0766,3.0754,3.0777,3.0782,3.0787,3.0788,3.0655,3.078,3.078,3.078,3.078,3.0779,0,3.0025,3.0064,3.0128,3.0205,3.0259,3.0258,3.0319,3.0365,3.0434,3.0488,3.0547,3.0633,3.0703,3.0751,3.0822,3.0862,3.0865,3.0879,3.0875,3.0883,3.0796,3.0775,3.0875,3.0875,3.0875,3.0875,3.0875,3.0875,3.0091,3.0177,3.0199,3.0307,3.0345,3.0422,3.0457,3.0504,3.0547,3.0641,3.07,3.073,3.0781,3.0856,3.092,3.0932,3.0957,3.0971,3.0983,3.09,3.089,3.088,3.086,3.0977,3.0977,3.1065,3.1065,3.1066]},{"header":{"parameterUnit":"m.s-1","parameterCategory":1,"la1":30.2991,"la2":30.254,"lo1":-89.0895,"lo2":-89.0444,"dy":0.0017,"dx":0.0017,"nx":28,"ny":28,"refTime":"2025-07-26T21:00:00:Z","depth":0,"parameterNumber":3,"parameterNumberName":"V-component_of_WINDS"},"data":[0,0,0,0,0,0,0,0,0,0,0,0,0,0,0,0,0,0,0,0,0,0,0,0,0,0,0,0,0,0,0,0,0,0,0,0,0,0,0,0,0,0,0,0,0,0,0,0,0,0,0,0,0,0,0,0,0,0,2.7813,2.7813,0,2.7804,2.7804,2.7804,2.7753,2.7752,2.7751,2.7749,2.7741,2.7742,2.7743,0,0,0,0,0,0,0,0,0,0,0,0,0,2.7784,2.7785,2.7813,2.7813,2.7812,2.7804,2.7804,2.7804,2.7753,2.7752,2.775,2.7749,2.7741,2.7742,2.7743,0,0,0,0,0,0,0,0,0,0,0,0,0,2.7788,2.7785,2.7813,2.7786,2.7784,2.7804,2.7804,2.7804,2.7754,2.7752,2.775,2.7748,2.774,2.7742,2.7743,2.7788,0,0,2.7747,2.7748,0,0,0,0,0,0,0,0,2.7788,2.7789,2.779,2.7788,2.7785,2.7778,2.7791,2.7799,2.7754,2.7765,2.7749,2.7747,2.7755,2.7755,2.7757,2.7788,2.7788,2.7747,2.7748,2.7749,2.7749,0,0,0,0,0,0,0,2.7788,2.7789,2.7809,2.779,2.7787,2.7774,2.7773,2.7792,2.777,2.7764,2.776,2.776,2.7753,2.7756,2.7757,2.7788,2.7747,2.7749,2.7749,2.775,2.7853,2.7855,0,0,0,0,0,0,2.7791,2.779,2.781,2.7809,2.7782,2.7776,2.7775,2.7782,2.777,2.7766,2.7761,2.7758,2.7755,2.7755,2.7756,2.7807,2.7749,2.775,2.7751,2.7852,2.7854,2.7856,0,0,0,0,0,0,2.7791,2.7794,2.781,2.7798,2.7799,2.7779,2.7787,2.7783,2.7786,2.7768,2.7764,2.7769,2.7753,2.7754,2.778,2.7806,2.7751,2.7752,2.7849,2.7852,2.7855,2.7911,0,0,0,0,0,0,2.779,2.7794,2.7811,2.7799,2.78,2.7835,2.7789,2.7784,2.7788,2.7783,2.7774,2.777,2.7752,2.7779,2.7782,2.7807,2.7753,2.7847,2.7851,2.7854,2.7906,2.7915,2.7923,0,0,0,0,0,2.779,2.7828,2.7812,2.7815,2.7821,2.7836,2.7837,2.7815,2.7791,2.7807,2.7796,2.7771,2.7803,2.7782,2.7785,2.7811,2.7845,2.785,2.7854,2.7903,2.7913,2.7922,0,0,0,0,0,0,2.7844,2.7826,2.7808,2.7844,2.7842,2.7828,2.7848,2.7827,2.7832,2.7827,2.7799,2.7797,2.7827,2.7822,2.7798,2.7854,2.782,2.7825,2.7856,2.7866,2.7874,2.7874,2.7754,0,0,0,0,0,2.786,2.7873,2.7857,2.789,2.7889,2.7869,2.7875,2.7858,2.7855,2.7854,2.7844,2.7842,2.7852,2.7859,2.7867,2.7906,2.7902,2.7925,2.7933,2.794,2.7944,2.7963,2.7973,2.787,2.787,2.787,0,0,2.7893,2.7885,2.7895,2.79,2.7897,2.7911,2.7869,2.7886,2.7896,2.7856,2.788,2.7873,2.7869,2.7901,2.7915,2.7898,2.7972,2.7945,2.7951,2.7952,2.7969,2.7978,2.7987,2.7873,2.7873,2.7872,0,0,2.7961,2.7956,2.7982,2.7979,2.7975,2.7961,2.7967,2.7956,2.7949,2.7973,2.7943,2.7954,2.7972,2.797,2.7971,2.8037,2.8013,2.804,2.8082,2.8101,2.8109,2.8116,2.8138,2.8146,2.8045,2.8045,2.8045,0,2.8003,2.8023,2.7999,2.8017,2.802,2.7984,2.801,2.8008,2.8006,2.8009,2.7989,2.8009,2.8004,2.8035,2.8051,2.8054,2.8059,2.8041,2.811,2.8116,2.8123,2.8143,2.8152,2.8048,2.8048,2.8048,2.8047,0,2.8074,2.8089,2.811,2.8108,2.8114,2.8136,2.8114,2.8122,2.8105,2.8093,2.8117,2.8109,2.8114,2.812,2.8104,2.8149,2.8138,2.8115,2.808,2.8136,2.8155,2.8163,2.8053,2.8052,2.8051,2.805,0,0,2.8176,2.8159,2.8168,2.8166,2.8157,2.8168,2.8188,2.8193,2.82,2.82,2.8215,2.8231,2.8208,2.821,2.8193,2.8209,2.826,2.8184,2.8183,2.8197,2.8308,2.8324,2.8334,2.8245,2.8246,2.8248,2.8307,0,2.824,2.8273,2.8251,2.8288,2.83,2.8266,2.8283,2.828,2.8269,2.8278,2.8266,2.8277,2.8248,2.8248,2.8263,2.8251,2.8282,2.8246,2.8258,2.8259,2.8259,2.8344,2.8362,2.8419,2.8315,2.8316,2.8317,0,2.8318,2.8321,2.8359,2.8346,2.8351,2.8367,2.8368,2.8378,2.8373,2.8363,2.8365,2.8343,2.8361,2.8328,2.8352,2.8329,2.8332,2.8327,2.8329,2.8328,2.8291,2.8345,2.8437,2.8445,2.8329,2.8328,2.8327,0,2.8387,2.84,2.8424,2.8423,2.841,2.8422,2.8417,2.841,2.8414,2.8415,2.8417,2.8422,2.8424,2.8427,2.8407,2.8384,2.8434,2.8399,2.8426,2.8426,2.8437,2.8437,2.853,2.8442,2.8442,2.8441,2.8441,0,2.846,2.8484,2.8454,2.8469,2.8494,2.8469,2.8495,2.8486,2.848,2.8492,2.8464,2.8475,2.8448,2.8457,2.8442,2.8464,2.8465,2.8458,2.8453,2.846,2.8461,2.8461,2.8456,2.8444,2.8443,2.8443,2.8442,0,2.8541,2.8522,2.8545,2.853,2.8527,2.8546,2.8533,2.8546,2.8533,2.8549,2.8551,2.8531,2.854,2.852,2.8526,2.8516,2.8546,2.8536,2.8548,2.8544,2.8572,2.857,2.8668,2.868,2.8586,2.8586,2.8587,0,2.8588,2.8606,2.8592,2.8598,2.8594,2.8604,2.8607,2.8583,2.8587,2.8582,2.8595,2.8602,2.8606,2.8621,2.8607,2.8612,2.8601,2.8635,2.8601,2.8607,2.86,2.8598,2.8599,2.8642,2.8643,2.8644,2.8645,0,2.8673,2.8663,2.8668,2.8671,2.8675,2.8676,2.8675,2.8681,2.8655,2.8662,2.867,2.8673,2.8679,2.8685,2.8687,2.8681,2.8658,2.8655,2.8662,2.8668,2.8674,2.867,2.8566,2.8653,2.8652,2.8652,2.8651,2.8651,2.8738,2.8751,2.8743,2.875,2.8747,2.8746,2.8757,2.8745,2.8751,2.8754,2.8739,2.875,2.8744,2.8743,2.874,2.8748,2.8733,2.8742,2.8744,2.8747,2.8751,2.8673,2.8749,2.8748,2.8748,2.8748,2.8748,0,2.882,2.8813,2.882,2.8819,2.8824,2.8802,2.8799,2.8805,2.8815,2.8811,2.8815,2.8824,2.883,2.8816,2.882,2.8829,2.8819,2.8831,2.883,2.8828,2.8765,2.8759,2.8839,2.8839,2.8839,2.8839,2.8839,2.8839,2.8864,2.8885,2.8873,2.8892,2.8885,2.8895,2.8895,2.8894,2.889,2.8902,2.8906,2.8897,2.8889,2.8891,2.8896,2.8891,2.8893,2.8909,2.8901,2.8842,2.8833,2.8824,2.8818,2.891,2.891,2.8963,2.8964,2.8964]}]]